TimeEDT,TemperatureF,Dew PointF,Humidity,Sea Level PressureIn,VisibilityMPH,Wind Direction,Wind SpeedMPH,Gust SpeedMPH,PrecipitationIn,Events,Conditions,WindDirDegrees,DateUTC
12:53 AM,70.0,69.1,97,29.90,10.0,WNW,5.8,-,0.00,,Clear,290,2013-07-24 04:53:00
1:05 AM,69.8,69.8,100,29.91,10.0,WNW,4.6,-,N/A,,Partly Cloudy,290,2013-07-24 05:05:00
1:36 AM,69.8,69.8,100,29.90,10.0,West,5.8,-,N/A,,Mostly Cloudy,280,2013-07-24 05:36:00
1:53 AM,70.0,69.1,97,29.87,9.0,West,4.6,-,N/A,,Mostly Cloudy,280,2013-07-24 05:53:00
2:53 AM,70.0,69.1,97,29.87,10.0,WNW,4.6,-,N/A,,Overcast,300,2013-07-24 06:53:00
3:53 AM,70.0,69.1,97,29.87,10.0,NW,9.2,-,N/A,,Overcast,310,2013-07-24 07:53:00
4:53 AM,71.1,69.1,93,29.86,10.0,NW,6.9,-,N/A,,Overcast,320,2013-07-24 08:53:00
5:53 AM,71.1,69.1,93,29.88,9.0,NW,5.8,-,N/A,,Overcast,310,2013-07-24 09:53:00
6:44 AM,69.8,69.8,100,29.91,9.0,West,3.5,-,N/A,,Overcast,280,2013-07-24 10:44:00
6:53 AM,71.1,69.1,93,29.90,9.0,West,4.6,-,N/A,,Overcast,270,2013-07-24 10:53:00
7:03 AM,71.6,69.8,94,29.91,8.0,Calm,Calm,-,N/A,,Overcast,0,2013-07-24 11:03:00
7:36 AM,71.6,69.8,94,29.91,7.0,Calm,Calm,-,N/A,,Scattered Clouds,0,2013-07-24 11:36:00
7:53 AM,72.0,70.0,93,29.89,8.0,Calm,Calm,-,N/A,,Scattered Clouds,0,2013-07-24 11:53:00
8:01 AM,71.6,69.8,94,29.91,8.0,WNW,5.8,-,N/A,,Mostly Cloudy,290,2013-07-24 12:01:00
8:43 AM,73.4,69.8,88,29.90,10.0,West,5.8,-,N/A,,Mostly Cloudy,270,2013-07-24 12:43:00
8:50 AM,73.4,69.8,88,29.90,10.0,West,3.5,-,N/A,,Mostly Cloudy,260,2013-07-24 12:50:00
8:53 AM,73.0,70.0,90,29.89,10.0,Variable,3.5,-,N/A,,Mostly Cloudy,0,2013-07-24 12:53:00
9:53 AM,73.9,69.1,85,29.91,9.0,West,5.8,-,N/A,,Overcast,280,2013-07-24 13:53:00
10:53 AM,75.0,69.1,82,29.92,8.0,WNW,6.9,-,N/A,,Overcast,300,2013-07-24 14:53:00
11:32 AM,78.8,69.8,74,29.94,10.0,NW,9.2,-,N/A,,Scattered Clouds,320,2013-07-24 15:32:00
11:53 AM,79.0,70.0,74,29.92,10.0,NNW,6.9,-,N/A,,Partly Cloudy,330,2013-07-24 15:53:00
12:53 PM,82.0,72.0,71,29.91,10.0,Calm,Calm,-,N/A,,Clear,0,2013-07-24 16:53:00
1:53 PM,84.0,72.0,67,29.88,10.0,Variable,4.6,-,N/A,,Clear,0,2013-07-24 17:53:00
2:53 PM,82.9,73.0,72,29.88,10.0,WNW,5.8,-,N/A,,Scattered Clouds,290,2013-07-24 18:53:00
3:53 PM,82.9,72.0,69,29.84,10.0,WNW,5.8,-,N/A,,Partly Cloudy,300,2013-07-24 19:53:00
4:53 PM,82.0,73.0,74,29.82,10.0,WNW,5.8,-,N/A,,Clear,290,2013-07-24 20:53:00
5:53 PM,84.0,72.0,67,29.83,10.0,WNW,6.9,-,N/A,,Clear,300,2013-07-24 21:53:00
6:53 PM,82.0,71.1,69,29.84,10.0,WNW,6.9,-,N/A,,Clear,300,2013-07-24 22:53:00
7:53 PM,80.1,73.0,79,29.86,10.0,Calm,Calm,-,N/A,,Clear,0,2013-07-24 23:53:00
8:53 PM,78.1,73.9,87,29.86,8.0,Calm,Calm,-,N/A,,Clear,0,2013-07-25 00:53:00
9:53 PM,77.0,73.0,88,29.87,9.0,West,4.6,-,N/A,,Clear,270,2013-07-25 01:53:00
10:53 PM,75.9,73.0,91,29.88,8.0,WNW,3.5,-,N/A,,Clear,290,2013-07-25 02:53:00
11:53 PM,75.0,73.0,94,29.87,6.0,Calm,Calm,-,N/A,,Clear,0,2013-07-25 03:53:00